GS0511 Weather Reports


Display with metric or nautical units.
time (UTC)temp
F
wind
direction
speed
MPH
gust
MPH
rain 1hr
in
rain 24hr
in
rain mn
in
humidity
%
barometer
mb
20260505220006 52 343 4.0 9.0 0.06 0.08 0.08 83 1009.4
20260505214500 55 275 6.0 16.0 0.03 0.05 0.05 84 1009.1
20260505213000 60 304 6.0 17.0 0.00 0.02 0.02 77 1008.3
20260505204500 63 232 7.0 13.0 0.00 0.02 0.02 72 1006.9
20260505203001 64 213 7.0 14.0 0.00 0.02 0.02 71 1006.7
20260505201500 65 290 7.0 16.0 0.00 0.02 0.02 68 1006.4
20260505200004 65 273 9.0 17.0 0.00 0.02 0.02 68 1006.5
20260505194500 66 227 8.0 21.0 0.00 0.02 0.02 67 1006.7
20260505193000 66 169 9.0 19.0 0.00 0.02 0.02 66 1006.6
20260505191500 68 186 9.0 19.0 0.00 0.02 0.02 65 1006.2
20260505183000 67 226 10.0 26.0 0.00 0.02 0.02 65 1006.4
20260505181500 67 273 10.0 24.0 0.00 0.02 0.02 66 1006.0
20260505180005 67 225 9.0 20.0 0.00 0.02 0.02 65 1005.9
20260505173000 67 236 9.0 27.0 0.00 0.02 0.02 65 1005.9
20260505171500 68 229 8.0 22.0 0.00 0.02 0.02 66 1005.6
20260505170006 67 270 9.0 19.0 0.00 0.02 0.02 66 1005.5
20260505164500 65 218 7.0 16.0 0.00 0.02 0.02 69 1005.5
20260505163000 64 205 6.0 13.0 0.00 0.02 0.02 69 1005.8
20260505161500 65 223 7.0 15.0 0.00 0.02 0.02 69 1005.8
20260505151459 66 265 5.0 13.0 0.00 0.02 0.02 67 1004.3
20260505124501 67 171 6.0 14.0 0.00 0.02 0.02 67 1003.6
20260505122959 65 163 5.0 11.0 0.00 0.02 0.02 72 1003.6
20260505121500 65 190 5.0 12.0 0.00 0.02 0.02 72 1003.4
20260505114500 64 167 5.0 12.0 0.00 0.02 0.02 73 1003.3
20260505112959 63 164 5.0 12.0 0.00 0.02 0.02 74 1003.3
20260505111459 63 182 6.0 10.0 0.00 0.02 0.02 74 1003.0
20260505101459 61 197 4.0 8.0 0.00 0.02 0.02 78 1002.5
20260505091459 58 113 1.0 4.0 0.00 0.02 0.02 85 1002.4
20260505090002 57 171 2.0 5.0 0.00 0.02 0.02 86 1002.6
20260505082958 57 174 1.0 2.0 0.01 0.02 0.02 89 1002.9
20260505081458 57 157 0.0 2.0 0.01 0.02 0.02 88 1003.0
20260505080002 58 189 1.0 3.0 0.01 0.02 0.02 87 1003.1
20260505074459 58 189 1.0 4.0 0.01 0.01 0.01 86 1003.3
20260505072959 59 250 2.0 5.0 0.01 0.01 0.01 86 1003.6
20260505071458 59 208 2.0 6.0 0.01 0.01 0.01 86 1004.0
20260505070001 60 173 4.0 9.0 0.01 0.01 0.01 84 1003.6
20260505064458 61 213 8.0 18.0 0.00 0.00 0.00 80 1003.7
20260505062958 61 184 3.0 13.0 0.00 0.00 0.00 76 1003.8
20260505060001 61 157 2.0 6.0 0.00 0.00 0.00 74 1003.7
20260505054458 62 187 3.0 7.0 0.00 0.00 0.00 73 1003.7
20260505051459 63 150 4.0 9.0 0.00 0.00 0.00 70 1003.9
20260505041458 63 200 3.0 8.0 0.00 0.00 0.00 66 1003.9
20260505040006 63 190 4.0 8.0 0.00 0.00 0.00 66 1004.1
20260505034501 63 219 4.0 10.0 0.00 0.00 0.00 65 1004.1
20260505033001 62 192 3.0 9.0 0.00 0.00 0.00 64 1004.2
20260505030005 58 202 1.0 15.0 0.00 0.00 0.00 65 1004.7
20260505024502 57 210 0.0 0.0 0.00 0.00 0.00 71 1004.0
20260505023001 57 210 0.0 0.0 0.00 0.00 0.00 72 1003.9
20260505021501 58 210 0.0 0.0 0.00 0.00 0.00 70 1003.8
20260505020008 58 210 0.0 1.0 0.00 0.00 0.00 68 1004.0
20260505014501 59 210 0.0 1.0 0.00 0.00 0.00 64 1004.1
20260505011501 60 210 0.0 0.0 0.00 0.00 0.00 59 1004.0
20260505010007 61 210 0.0 1.0 0.00 0.00 0.00 58 1003.9
20260505003001 65 210 0.0 1.0 0.00 0.00 0.00 51 1004.0
20260505001501 67 210 0.0 2.0 0.00 0.00 0.00 47 1004.0
20260504234501 69 205 2.0 4.0 0.00 0.00 0.00 44 1004.0
20260504233002 70 271 1.0 4.0 0.00 0.00 0.00 44 1004.0
20260504230005 72 267 3.0 7.0 0.00 0.00 0.00 40 1003.9
20260504224502 72 325 6.0 10.0 0.00 0.00 0.00 39 1003.9